"Pseudo-MPEC" for CALVKX2

Created 2024 May 17 0:22:07 UT using Find_Orb

Click here for an explanation of pseudo-MPECs

 
 Astrometry: 
     CALVKX2  C2024 05 09`MO's:A:Q[5Tg(Sm;j5Y`QMI1_-d=Z'#-0*ZAstrometry%%t0`cF51
     CALVKX2  C2024 05 09dNkqua;e@H%'a2k$lM'S7f3kbLRKkZqb/2$N,ZjT9KpKqtrDVK5BF51
     CALVKX2  C2024 05 099R3!X?ISwf=cDkp$\$qatBXInV%@redacted;lGYD44V.:allXU6F51
     CALVKX2  C2024 05 09JKn`*eG$aMV\RP(S/hC]P7c7)/J_ytdmZn2[Msa)x-clickYZ:BaF51
     CALVKX2*1C2024 05 15.32892015 53 26.038+18 33 09.65   ~5F8b 20.22GVNEOCPG96
     CALVKX2 1C2024 05 15.33916015 53 29.771+18 32 30.88   ~5F8b 19.81GVNEOCPG96
     CALVKX2 1C2024 05 15.34428115 53 31.654+18 32 11.22   ~5F8b 20.24GVNEOCPG96
     CALVKX2 KC2024 05 15.41989115 53 59.557+18 27 18.07   ~5FAb 19.93GVNEOCPI52
     CALVKX2 KC2024 05 15.42082215 53 59.921+18 27 14.51   ~5FAb 20.38GVNEOCPI52
     CALVKX2 KC2024 05 15.42176415 54 00.256+18 27 10.51   ~5FAb 20.42GVNEOCPI52
     CALVKX2 KC2024 05 15.42269415 54 00.590+18 27 06.48   ~5FAb 19.83GVNEOCPI52
     CALVKX2 KB2024 05 15(?DXWaJ:ptSoH(fNc9!%n_WUr7o;xRZv0k]4,-b90WrlxV7V5+;FY66
     CALVKX2 KB2024 05 15:3]0(6b=fLbJaHW#b44?,=a6/=%n2hereK/ycs(S[y?-aiH0!Lr5Y66
     CALVKX2 KC2024 05 15.98092615 58 00.012+17 49 30.90   ~5G07x19.9 GVNEOCPJ95
     CALVKX2 KB2024 05 15:ku@/\1ry6febOe%HmX)lwkSgm=B?5WY'RTjiebBU(.=Xsv@TdfRY66
     CALVKX2 KB2024 05 15/ss7;vLL/SXcwG(_j^BRUKRZE,x18-*1dA`HRoU13SX;lS4T/hY;Y66
     CALVKX2 KB2024 05 15I$!!5:/t%Mo,3=^\sIo(1r^-mMOLBx+DTt^=Hcjo#5._bWUh9@;RY66
     CALVKX2 KC2024 05 15.98407515 58 01.258+17 49 18.91   ~5G07 20.1 GVNEOCPJ95
     CALVKX2 KC2024 05 15.98722615 58 02.534+17 49 06.24   ~5G07 20.5 GVNEOCPJ95
     CALVKX2 KC2024 05 15.99034215 58 03.778+17 48 53.17   ~5G07 20.3 GVNEOCPJ95
     CALVKX2 KC2024 05 16^EfQK.*VR^+j!STkK#Hae-IC8\6-hO/3;`9#jI0NTOb.t32Btw*DH21
     CALVKX2 KC2024 05 16t617Cy@R35lL8]ue*#ol1i%wfTOpRIJhZ;eZ[qGJcMcef`B[R.$2H21
     CALVKX2 KC2024 05 16+jfZ:^?`Z%RpvS@_Z):7IwE;*Ss9\sXforTWQnP2s\(o6H.J,Ha/H21
     CALVKX2 KC2024 05 16(_.wibq_!5ANGO`yCj1LmeoMg!vNdXexplanation3sVV5';j6=?H21

Station data:
(F51) Pan-STARRS 1, Haleakala  (N20.707234 W156.255910)  US/Hawaii.
   Observers J. Bulger, T. Lowe, A. Schultz, M. Willman. Measurers K.
   Chambers, S. Chastel, T. de Boer, L. Denneau, J. Fairlamb, H. Flewelling,
   M. Huber, C.-C. Lin, E. Magnier, Y. Ramanjooloo, R. Wainscoat, R. Weryk.
   1.8-m Ritchey-Chrétien + CCD.
(G96) Mt. Lemmon Survey  (N32.442729 W110.788720)  US/Arizona.  Observer E.
   J. Christensen. 1.5-m reflector + 10K CCD.
(H21) Astronomical Research Observatory, Westfield  (N39.483054 W87.968270)
   US/Illinois.  Observer R. Holmes. Measurers S. Foglia, L. Buzzi, T.
   Linder, R. Holmes. 0.76-m f/3.0 astrograph + CCD0.81-m f/4.0 astrograph +
   CCD0.61-m f/4.5 astrograph + CCD0.40-m f/5.32 astrograph + CCD.
(I52) Steward Observatory, Mt. Lemmon Station  (N32.442570 W110.788920)
   US/Arizona.  Observers T. A. Pruyne, B. M. Africano, E. J. Christensen, G.
   A. Farneth, D. C. Fuls, A. R. Gibbs, A. D. Grauer, H. Gröller, J. A.
   Johnson, R. A. Kowalski, S. M. Larson, G. J. Leonard, D. Rankin, R. L.
   Seaman, F. C. Shelly, K. W. Wierzchoś. 1.0-m prime focus + CCD.
(J95) Great Shefford  (N51.474969 W1.447003)  UK/England.  Observer P.
   Birtwhistle. 0.41-m f/6.3 Schmidt-Cassegrain + CCD.
(Y66) Two-Meter Twin Telescope, TTT2, Teide  (N28.298728 W16.509470)  Canary
   Islands (Spain).

Orbital elements:  CALVKX2
   Perihelion 2024 Jun 5.42278 +/- 0.00367 TT = 10:08:48 (JD 2460466.92278)
Epoch 2024 May 16.0 TT = JDT 2460446.5   Earth MOID: 0.0338      AutoNEOCP
M 353.07673996 +/- 0.045            (J2000 ecliptic)
n   0.33899697 +/- 0.00229          Peri.  186.89944 +/- 0.011
a   2.03706789 +/- 0.00906          Node    70.58494 +/- 0.0039
e   0.4863478 +/- 0.00225           Incl.    9.30363 +/- 0.029
P   2.91                   H 24.41  G  0.15   U  8.7
q 1.04634438 +/- 0.000108    Q 3.02779140 +/- 0.018
23 of 24 observations 2024 May 9-16; mean residual 0".20
Residuals in arcseconds: 
240509 F51  .03-  .03+    240515 I52  .06-  .02+    240515 Y66  .28+  .24-    
240509 F51  .01+  .03+    240515 I52  .33-  .27-    240515 J95  .10-  .02-    
240509 F51  .05+  .02-    240515 I52  .54-  .63-    240515 J95  .11+  .29+    
240509 F51  .03-  .03-    240515 Y66  .31+  .02-    240515 J95  .06+  .07+    
240515 G96  .03+  .18-    240515 Y66  .22+  .06-    240516 H21  .24-  .23-    
240515 G96  .00   .04-    240515 J95( .10+  .99-)   240516 H21  .23-  .11-    
240515 G96  .18+  .18-    240515 Y66  .13+  .11-    240516 H21  .06+  .07-    
240515 I52  .27-  .08-    240515 Y66  .04+  .05-    240516 H21  .06-  .33-    

Ephemerides (geocentric):
Date (UTC) HH   RA             Dec           delta  r     elong  mag " sig PA
---- --------  ------------   ------------  ------ ------ -----  --- --------
2024 05 17 00  16 05 39.036   +16 35 00.68  .07291 1.0707 143.4 20.3 .664 124
2024 05 17 01  16 05 58.801   +16 31 41.20  .07275 1.0706 143.4 20.3 .690 124
2024 05 17 02  16 06 18.644   +16 28 20.57  .07258 1.0705 143.4 20.3 .716 124
2024 05 17 03  16 06 38.564   +16 24 58.78  .07241 1.0704 143.5 20.3 .742 123
2024 05 17 04  16 06 58.563   +16 21 35.81  .07225 1.0702 143.5 20.3 .769 123
2024 05 17 05  16 07 18.640   +16 18 11.65  .07208 1.0701 143.5 20.3 .797 123
2024 05 17 06  16 07 38.796   +16 14 46.32  .07192 1.0700 143.6 20.3 .825 122
2024 05 17 07  16 07 59.031   +16 11 19.79  .07175 1.0699 143.6 20.3 .853 122
2024 05 17 08  16 08 19.346   +16 07 52.06  .07159 1.0698 143.7 20.2 .882 122
2024 05 17 09  16 08 39.740   +16 04 23.12  .07143 1.0697 143.7 20.2 .912 121
2024 05 17 10  16 09 00.215   +16 00 52.97  .07126 1.0696 143.7 20.2 .942 121
2024 05 17 11  16 09 20.771   +15 57 21.61  .07110 1.0695 143.8 20.2 .973 121
2024 05 17 12  16 09 41.408   +15 53 49.01  .07094 1.0694 143.8 20.2 1.00 121
2024 05 17 13  16 10 02.126   +15 50 15.18  .07077 1.0693 143.9 20.2 1.04 120
2024 05 17 14  16 10 22.926   +15 46 40.11  .07061 1.0692 143.9 20.2 1.07 120
2024 05 17 15  16 10 43.808   +15 43 03.80  .07045 1.0691 143.9 20.2 1.10 120
2024 05 17 16  16 11 04.772   +15 39 26.23  .07028 1.0690 144.0 20.2 1.13 120
2024 05 17 17  16 11 25.820   +15 35 47.39  .07012 1.0689 144.0 20.2 1.17 120
2024 05 17 18  16 11 46.950   +15 32 07.30  .06996 1.0688 144.1 20.2 1.20 120
2024 05 17 19  16 12 08.164   +15 28 25.92  .06980 1.0687 144.1 20.2 1.24 119
2024 05 17 20  16 12 29.462   +15 24 43.27  .06964 1.0687 144.1 20.2 1.27 119
2024 05 17 21  16 12 50.845   +15 20 59.32  .06948 1.0686 144.2 20.2 1.31 119
2024 05 17 22  16 13 12.312   +15 17 14.08  .06932 1.0685 144.2 20.2 1.34 119
2024 05 17 23  16 13 33.864   +15 13 27.54  .06916 1.0684 144.3 20.2 1.38 119
2024 05 18 00  16 13 55.501   +15 09 39.68  .06900 1.0683 144.3 20.1 1.42 119
2024 05 18 01  16 14 17.225   +15 05 50.51  .06884 1.0682 144.3 20.1 1.46 119
2024 05 18 02  16 14 39.034   +15 02 00.02  .06868 1.0681 144.4 20.1 1.50 119
2024 05 18 03  16 15 00.930   +14 58 08.19  .06852 1.0680 144.4 20.1 1.54 119
2024 05 18 04  16 15 22.913   +14 54 15.02  .06836 1.0679 144.5 20.1 1.58 119
2024 05 18 05  16 15 44.984   +14 50 20.51  .06820 1.0678 144.5 20.1 1.62 119
2024 05 18 06  16 16 07.142   +14 46 24.65  .06804 1.0677 144.6 20.1 1.66 118
2024 05 18 07  16 16 29.388   +14 42 27.42  .06788 1.0676 144.6 20.1 1.70 118
2024 05 18 08  16 16 51.722   +14 38 28.83  .06773 1.0675 144.6 20.1 1.74 118
2024 05 18 09  16 17 14.146   +14 34 28.86  .06757 1.0674 144.7 20.1 1.79 118
2024 05 18 10  16 17 36.659   +14 30 27.51  .06741 1.0673 144.7 20.1 1.83 118
2024 05 18 11  16 17 59.261   +14 26 24.77  .06725 1.0672 144.8 20.1 1.88 118
2024 05 18 12  16 18 21.953   +14 22 20.63  .06710 1.0671 144.8 20.1 1.92 118
2024 05 18 13  16 18 44.736   +14 18 15.09  .06694 1.0670 144.9 20.1 1.97 118
2024 05 18 14  16 19 07.609   +14 14 08.14  .06678 1.0669 144.9 20.1 2.01 118
2024 05 18 15  16 19 30.574   +14 09 59.77  .06663 1.0668 144.9 20.1 2.06 118
2024 05 18 16  16 19 53.630   +14 05 49.97  .06647 1.0667 145.0 20.0 2.11 118
2024 05 18 17  16 20 16.778   +14 01 38.73  .06632 1.0666 145.0 20.0 2.16 118
2024 05 18 18  16 20 40.019   +13 57 26.06  .06616 1.0665 145.1 20.0 2.21 118
2024 05 18 19  16 21 03.352   +13 53 11.94  .06601 1.0664 145.1 20.0 2.26 118
2024 05 18 20  16 21 26.778   +13 48 56.36  .06585 1.0664 145.2 20.0 2.31 118
2024 05 18 21  16 21 50.298   +13 44 39.31  .06570 1.0663 145.2 20.0 2.36 118
2024 05 18 22  16 22 13.911   +13 40 20.80  .06555 1.0662 145.3 20.0 2.41 118
2024 05 18 23  16 22 37.619   +13 36 00.80  .06539 1.0661 145.3 20.0 2.46 118